SL-14 DEB

Satellite information

Favourite Embed

Satellite Type and Status

DEBRISIN ORBIT

Key statistics

Satellite SL-14 DEB at a glance.

Uptime

12442

Days in orbit

Revolutions

≈ 13.2

Per day

Orbit

LEO

Low Earth Orbit

Inclination

82.6

Latest

Satellite identification and parameters

Extended collection of information and parameters for SL-14 DEB.

Object identification

Identified? True

Debris? True

Object name: SL-14 DEB

International designator: 1991-056BQ

Object number (NORAD): 45326

Object ID (CCSDS): 45326

Country: COMMONWEALTH OF INDEPENDENT STATES (CIS)

Current information (Y/N): Y

RCS size: SMALL

Orbital parameters

Period: 108.701 minutes

Inclination: 82.5926 deg

SMA: 7544.84 km

Apoapsis: 1190.289 km

Periapsis: 1143.121 km

RAAN: 331.6373 deg

Eccentricy: 0.00312585

Argument of periapsis: 31.0806 deg

Mean anomaly: 329.2162 deg

Mean motion: 13.24731131 rev/day

Mean motion (dot): 0.00000684 rev/day2

B* drag term: 0.0015515659 1/REarth

Two-line elements (TLE)

Creation date: Sept. 6, 2025, 10:23 a.m.

Reference frame: TEME

Reference center: EARTH

Epoch: Sept. 6, 2025, 5:48 a.m. UTC

TLE line 0: 0 SL-14 DEB

TLE line 1: 1 45326U 91056BQ 25249.24173047 .00000684 00000-0 15516-2 0 9999

TLE line 2: 2 45326 82.5926 331.6373 0031258 31.0806 329.2162 13.24731131268598

Live tracking on map

Real-time ground track for satellite SL-14 DEB.

In-orbit conjunctions

A list of the most updated potential collisions computed for object SL-14 DEB.

Target Orbit TCA Probability of collision Miss distance Type
METEOR 3-5 LEO 2025-05-20 22:47:38 0.000122081 782.0 (m) PAYLOAD

Associated space launch

Third generation meteorological satellite

SL-14 DEB was lifted into orbit during the mission ‘Tsiklon-3 | Meteor-3 5’, on board a Tsiklon-3 space rocket.

The launch took place on Aug. 15, 1991, 9:15 a.m. from 32/2.

For more information about the launch, click the button.

Launch to space Tsiklon-3 | Meteor-3 5
Tsiklon-3 | Meteor-3 5

Agency: N/A

Status: Launch Successful

Launch date: Aug. 15, 1991, 9:15 a.m. UTC

Rocket: Tsiklon-3

Launch pad: 32/2

Location: Plesetsk Cosmodrome, Russian Federation

...

Latest news about this satellite

There are no fresh news available about this satellite. Check back as we update our databases every day.


Newsletter sign-up

Weekly statistics, charts and insights to help you stay on top of the space industry.